WORLDVIEW-1 (WV-1)

Last updated on Mon Sep 07 2026 00:02:45 GMT+0000 (Coordinated Universal Time)

1 32060U 07041A 26249.62038610 .00003698 00000+0 15320-3 0 9991 2 32060 97.3853 8.1992 0002028 99.0869 261.0599 15.24531471 55285
UTC large
Height (km)
Speed (km/s)
/
Latitude / Longitude
Inclination (degrees)
Orbital Period (minutes)
Azimuth
Elevation
Range (km)
Doppler Factor

Next 0 passes for location: London (51.5072 / 0.1276)

No passes found over London.
WORLDVIEW-1 (WV-1)